Temperature
23 23 24 25 25 24 22 20 19 19 18 18 17 17 19 20 19 19 18 17 17 16 15 15 14 13 13 12 12 12 11 11 11 10 10 9 9 9 8 8 8 7 7 7
22 24 24 24 25 25 24 23 21 19 19 18 19 20 20 20 19 18 18 17 17 16 15 14 14 13 13 12 12 11 11 11 10 10 9 9 9 8 8 8 7 7 7 7
20 21 22 22 24 24 24 23 21 20 19 19 18 18 19 19 19 18 18 17 17 16 15 14 13 13 12 12 11 11 11 10 10 9 9 9 8 8 8 8 7 7 7 7
19 20 22 21 23 24 23 22 21 19 19 19 19 19 19 20 19 19 18 17 17 16 15 14 13 13 12 12 11 11 10 10 9 9 9 8 8 8 8 7 7 7 8 8
18 20 21 22 23 23 22 21 20 19 19 19 19 18 18 19 19 19 18 17 16 15 15 14 13 12 12 11 11 10 10 9 9 8 8 8 8 7 7 7 7 8 8 8
19 20 20 21 23 24 21 20 21 20 19 20 18 16 17 20 19 18 18 17 16 15 15 14 13 12 11 11 10 10 9 9 8 8 8 7 7 7 7 7 8 8 8 8
19 19 20 22 24 24 21 20 22 22 22 22 19 19 21 20 19 18 18 17 16 15 15 14 13 12 11 10 10 9 9 9 8 8 7 7 7 7 7 7 8 8 8 8
18 19 20 22 24 22 21 24 24 23 23 23 22 22 21 20 19 18 18 17 16 15 14 13 12 12 11 10 10 9 9 8 8 8 7 7 7 7 7 7 8 8 8 8
19 19 22 25 25 26 26 24 24 24 23 23 22 22 21 20 19 19 18 17 16 15 14 13 12 11 11 10 9 9 9 8 8 8 7 7 7 7 7 8 8 8 8 7
20 20 22 25 26 26 25 25 25 24 24 23 23 22 21 20 19 19 18 17 16 15 14 13 12 11 10 10 9 9 8 8 8 7 7 7 7 7 7 8 8 8 8 7
19 20 23 25 26 26 26 25 25 24 24 23 23 22 21 20 20 19 18 17 16 15 14 13 12 11 10 10 9 9 8 8 7 7 7 7 7 7 8 8 8 8 8 7
19 22 20 24 26 26 25 25 25 24 24 23 23 22 21 21 20 19 18 17 16 15 14 13 12 11 10 10 9 9 8 8 7 7 7 7 7 8 9 8 8 8 8 8
24 25 25 25 26 25 25 25 25 25 24 24 23 22 21 20 20 19 18 17 16 15 14 13 12 11 11 10 9 8 8 7 7 7 7 7 7 8 8 9 9 8 8 8
25 25 25 25 25 25 25 25 24 24 24 23 23 22 21 20 19 18 18 17 16 15 14 13 12 12 11 10 9 9 8 7 7 7 7 7 8 8 8 8 8 9 8 8
24 24 24 24 24 24 24 24 23 23 23 23 22 22 21 20 19 18 17 17 16 15 14 13 13 12 11 10 9 9 8 8 7 7 7 7 8 8 8 8 8 8 8 8
21 21 21 21 21 21 21 21 21 22 22 22 22 21 21 20 19 18 17 16 16 15 14 14 13 12 11 10 10 9 8 7 7 7 7 8 8 8 8 8 8 8 8 8
17 17 17 17 17 18 18 19 19 20 20 21 21 21 20 19 18 17 17 16 16 15 14 14 13 12 11 10 10 9 8 8 7 7 7 7 8 8 8 8 8 8 8 8
15 15 15 15 15 16 17 17 18 18 19 19 20 19 19 18 18 18 17 16 15 15 14 13 12 12 11 10 10 9 8 7 7 7 7 7 8 8 8 8 8 8 8 8
14 14 15 15 15 15 15 16 16 17 17 18 18 18 18 18 18 17 17 16 15 15 14 13 12 11 11 10 9 8 8 7 7 7 7 7 7 8 8 8 8 8 8 8
14 14 14 14 14 14 14 15 15 16 16 16 16 17 17 17 17 17 16 16 16 15 14 13 12 11 11 10 9 8 8 7 7 7 7 7 7 8 8 8 8 8 8 8
13 13 13 13 13 13 14 14 14 14 14 14 14 15 15 15 16 16 15 15 15 14 13 12 12 11 10 9 9 8 7 7 6 6 6 7 7 8 8 8 8 8 8 8
12 12 12 12 12 13 13 13 13 13 13 13 13 13 14 14 14 15 15 15 14 13 13 12 11 10 10 9 8 7 7 6 6 6 6 6 7 7 7 8 8 8 8 8
11 12 12 12 12 12 12 12 12 12 12 12 12 13 13 13 14 14 14 14 13 12 12 11 10 10 9 8 8 7 6 6 6 6 6 6 6 7 7 7 8 8 8 8
11 11 11 11 12 12 12 12 11 11 11 11 12 12 12 13 13 13 13 13 13 12 11 10 10 9 8 8 7 6 6 6 5 5 5 5 6 6 7 7 8 8 8 8
10 11 11 11 11 11 11 11 11 11 11 11 11 11 11 12 12 12 12 12 11 11 10 9 8 8 7 7 6 6 5 5 5 5 5 5 6 6 7 7 7 8 8 8
10 10 10 10 10 10 10 10 10 10 10 10 10 10 10 10 11 11 11 10 10 10 9 8 8 7 7 6 6 5 5 5 4 4 4 5 5 6 6 7 7 8 8 8
10 10 10 10 10 10 10 10 10 10 10 9 9 9 9 9 9 9 9 9 9 8 8 7 7 6 6 5 5 5 4 4 4 4 4 4 5 5 6 7 7 7 8 8
Wind_Speed
4 6 5 6 5 2 5 8 8 8 10 11 11 11 11 10 9 8 7 6 6 4 4 5 6 7 7 7 6 5 5 6 7 7 7 7 7 7 8 8 8 8 8 9
6 7 9 7 5 1 4 5 7 9 6 9 8 7 7 8 9 8 7 6 5 4 4 5 6 7 6 6 6 5 6 7 7 6 6 6 7 8 8 8 8 8 9 9
4 8 6 6 3 2 4 4 8 7 8 7 7 8 9 8 8 8 7 6 6 5 5 6 6 6 6 6 5 5 6 7 6 6 6 7 8 8 8 9 9 9 9 9
1 5 3 9 5 5 7 4 7 9 8 9 8 7 6 8 9 9 8 7 6 5 5 5 4 5 5 5 5 6 6 5 5 6 7 8 8 9 9 8 9 9 10 10
3 2 6 8 5 5 7 2 5 10 9 8 8 5 2 8 9 9 9 7 6 5 5 4 5 5 4 5 5 5 5 6 6 7 8 9 9 10 9 9 10 10 10 10
4 3 6 9 5 6 9 1 6 9 10 10 9 3 6 9 9 9 8 6 5 4 3 3 5 4 3 5 5 6 6 7 7 7 8 9 10 10 9 9 10 10 10 10
5 6 8 8 5 5 3 8 9 10 10 10 10 9 7 9 9 9 8 7 6 4 2 4 4 2 3 5 5 6 6 7 7 8 9 9 9 8 9 10 10 10 11 10
3 2 7 7 4 6 10 7 9 11 11 11 11 10 9 11 11 10 8 7 6 3 3 4 3 2 3 5 6 6 6 7 8 9 9 10 10 10 9 9 10 10 9 9
7 8 9 8 10 10 9 9 10 11 11 12 11 11 11 11 11 10 9 7 5 4 3 3 3 2 4 5 5 5 6 8 9 10 9 9 9 10 10 9 8 8 7 7
5 9 9 9 9 7 9 11 12 13 12 12 12 12 12 11 10 9 8 7 5 4 3 4 4 4 5 5 4 5 7 8 8 9 10 10 8 7 8 9 8 8 7 7
6 9 8 7 8 10 10 10 10 11 12 14 13 12 12 11 11 10 8 6 6 5 5 5 5 4 4 4 3 5 7 7 8 8 9 10 9 8 9 9 10 9 8 6
8 9 7 8 9 9 9 10 11 11 11 10 12 13 12 11 10 10 9 7 6 6 5 5 5 4 4 4 3 5 6 7 7 8 8 8 10 11 12 13 15 15 12 9
10 9 8 7 7 7 8 9 9 10 11 10 11 12 12 10 10 9 8 8 7 7 6 5 4 5 5 4 3 5 7 8 7 8 8 9 9 9 11 13 12 11 10 11
9 6 4 3 4 5 4 4 2 2 6 10 11 10 11 10 8 9 9 8 8 7 5 5 5 6 5 4 4 6 7 9 9 7 8 9 9 9 9 9 10 7 6 9
6 3 2 2 5 7 5 4 4 3 1 6 9 11 12 12 11 10 8 7 7 6 5 5 6 6 4 4 4 6 6 6 7 7 8 8 8 8 8 8 8 7 5 5
6 9 10 12 12 12 11 10 7 5 2 5 9 11 12 11 10 9 8 8 7 7 7 6 6 5 4 4 5 5 6 11 11 8 8 8 8 8 8 8 7 7 6 5
17 16 14 14 14 14 14 13 11 10 7 3 7 8 9 10 9 9 9 9 9 8 7 7 6 5 5 4 4 4 5 8 12 9 7 8 8 8 8 7 7 7 6 6
15 14 13 13 13 14 16 16 16 15 12 7 0 5 9 11 11 12 11 9 7 6 6 7 7 6 4 4 4 3 5 5 6 7 7 7 8 7 7 7 7 8 6 5
16 15 15 15 14 13 14 15 15 14 12 9 2 4 8 10 11 10 9 9 9 8 7 7 9 6 4 4 2 3 5 6 6 6 7 9 8 7 7 7 7 7 6 5
14 14 13 13 13 12 12 12 13 12 11 10 7 7 7 9 9 10 10 10 9 7 7 8 7 5 3 3 2 3 5 5 5 6 6 7 7 7 7 7 7 7 6 6
13 13 13 13 12 12 11 11 12 13 13 11 10 10 11 11 9 9 8 9 8 7 8 9 6 5 3 2 3 3 4 3 4 5 6 7 7 8 7 8 8 7 7 7
10 10 11 12 12 12 11 11 11 12 13 12 12 11 10 10 9 9 9 8 6 9 7 6 5 6 4 2 2 2 2 2 3 4 5 6 7 7 8 8 8 7 7 7
9 10 11 11 12 12 12 11 11 10 11 11 11 11 11 10 7 7 8 5 5 9 7 6 8 8 5 2 1 0 1 2 3 4 5 6 7 7 7 8 8 8 7 7
11 11 11 11 10 10 10 11 10 8 9 9 9 10 9 8 6 5 3 6 10 10 6 8 11 8 4 1 1 1 2 2 3 4 5 6 6 6 7 8 8 8 8 9
12 11 10 10 10 8 8 8 8 8 8 8 10 10 9 6 4 2 1 3 7 7 5 7 8 6 4 3 3 3 3 3 4 4 5 6 7 7 7 7 8 8 8 8
10 9 8 8 7 6 5 5 5 6 7 7 8 8 8 7 4 2 2 4 6 6 6 5 5 5 5 5 5 4 4 4 5 5 6 7 7 8 7 8 10 8 8 8
8 7 6 7 6 6 5 5 6 6 6 6 7 7 7 5 3 1 2 3 3 4 5 6 7 7 7 6 6 5 5 5 5 5 6 6 7 7 8 9 8 8 8 8
Wind_Direction
258 287 320 308 306 170 151 167 161 177 173 200 197 193 196 194 188 178 184 190 196 213 238 255 261 262 259 259 262 256 253 258 263 266 269 273 277 278 278 276 277 266 262 261
323 317 327 317 312 116 138 132 130 135 183 213 200 189 188 181 169 171 180 186 192 208 242 265 270 271 268 263 263 255 256 263 269 277 282 285 285 284 284 280 276 272 266 263
291 313 354 324 283 131 127 142 149 167 192 187 183 189 185 174 163 171 184 192 206 228 248 261 268 267 264 261 265 269 269 274 283 290 294 293 298 298 289 284 279 275 270 265
219 12 313 258 260 147 121 97 137 142 165 175 175 171 172 170 170 186 194 201 221 238 253 262 266 269 268 269 277 283 286 290 292 295 296 296 297 294 289 282 280 277 274 268
142 217 274 289 278 159 123 71 151 145 158 160 150 111 239 208 190 193 198 203 216 226 232 256 276 277 280 290 294 297 297 295 291 293 297 299 299 296 291 287 284 278 274 270
160 196 248 256 256 136 101 149 217 165 166 166 148 148 249 224 200 195 197 200 207 218 231 277 285 288 294 297 301 298 295 293 292 293 296 297 294 292 290 285 283 283 280 273
205 226 257 244 218 110 125 232 213 187 181 175 180 202 212 196 194 194 192 194 185 186 234 268 278 289 297 298 291 285 291 297 299 298 297 293 291 291 291 290 289 285 282 280
182 210 262 241 197 180 215 210 195 193 189 186 199 206 193 184 188 185 183 185 181 190 244 269 274 274 290 287 278 287 298 303 303 302 303 308 299 296 292 289 290 289 285 286
189 215 234 225 211 216 186 187 199 197 198 186 186 192 187 185 183 184 184 189 191 194 237 273 270 237 262 272 280 296 307 308 305 305 302 297 295 296 299 294 288 289 286 283
265 267 258 249 243 230 197 199 204 197 192 181 186 189 184 180 181 183 186 190 189 191 230 263 259 247 244 265 280 300 306 305 306 307 306 304 299 291 291 291 290 290 284 276
286 285 302 290 252 234 223 215 209 205 196 192 185 184 180 180 183 185 188 191 183 191 218 244 249 250 253 259 287 303 302 302 306 303 303 305 302 294 288 280 272 273 273 259
250 251 228 251 257 245 230 226 216 206 209 203 186 182 177 180 182 182 186 183 183 194 214 238 241 241 249 251 268 296 303 305 304 304 304 303 305 308 296 284 283 275 252 240
239 242 219 243 268 258 234 227 213 201 202 199 190 178 172 175 180 179 181 180 187 198 210 228 229 236 247 245 264 287 291 297 302 301 303 305 304 304 309 311 305 290 267 248
255 236 250 290 292 293 265 239 202 206 205 191 181 173 170 168 170 176 184 190 188 188 200 212 219 240 241 235 269 287 291 298 301 296 299 300 300 298 296 297 305 306 285 259
282 240 228 335 15 12 11 26 37 3 223 190 178 175 173 171 175 182 185 179 177 186 204 213 232 247 230 238 272 286 293 296 297 296 298 297 297 298 298 296 295 293 294 286
25 34 35 36 29 22 22 20 13 344 291 201 192 190 181 171 169 172 176 172 179 202 215 223 234 228 217 246 275 283 287 303 311 304 303 305 305 305 305 304 302 297 288 274
50 37 30 29 26 22 20 16 8 357 346 291 215 187 162 156 161 175 188 195 197 202 208 211 209 205 223 248 261 273 286 302 311 310 303 304 307 306 306 303 301 300 291 272
52 48 41 35 27 19 14 11 7 4 356 341 196 154 165 173 185 195 200 195 195 209 215 197 187 196 227 251 251 267 284 290 299 304 307 309 310 307 308 309 309 308 304 297
36 33 28 25 19 14 9 4 358 353 353 352 327 205 205 206 205 202 194 189 198 216 219 193 187 193 221 235 241 273 285 293 301 307 311 314 316 313 316 317 316 316 310 303
26 20 16 10 5 1 353 347 343 338 335 334 314 278 254 239 223 208 196 203 213 208 185 175 180 187 194 217 278 282 288 295 308 319 323 321 319 319 320 321 321 320 318 311
10 3 357 351 343 338 333 329 327 322 319 317 306 286 269 258 241 217 205 224 232 189 167 168 163 165 179 230 286 286 293 307 325 330 329 325 322 323 324 325 324 321 320 321
349 341 334 329 325 321 317 314 311 309 309 308 303 298 290 277 258 239 228 228 206 166 158 154 157 169 181 219 264 290 306 330 338 335 330 328 324 325 326 326 324 325 327 327
324 316 312 308 305 302 304 307 306 306 306 306 307 306 298 284 265 244 249 231 171 167 160 159 168 173 178 189 228 334 347 347 345 338 329 325 325 324 323 324 327 328 328 330
312 307 302 299 304 309 309 308 312 317 318 318 319 322 321 312 299 268 236 176 171 165 158 166 172 170 159 137 108 69 28 2 349 339 331 328 327 328 329 330 331 331 331 332
304 304 304 310 315 311 305 313 324 330 336 334 332 332 334 325 300 279 169 147 146 141 148 176 175 150 118 97 86 66 44 18 4 351 341 336 333 332 332 333 332 333 338 343
298 300 300 301 302 300 308 321 326 325 326 328 328 329 333 336 347 28 107 141 148 146 145 139 129 116 100 93 79 64 45 22 10 359 346 339 335 337 336 336 334 339 343 350
296 300 303 310 310 313 319 322 321 321 323 323 319 317 321 329 336 50 117 118 117 115 113 109 106 103 95 83 72 57 40 25 11 357 348 342 340 340 339 337 340 343 350 354
Height
1504 1498 1495 1493 1491 1491 1498 1505 1514 1513 1515 1511 1508 1507 1506 1506 1507 1507 1507 1507 1505 1504 1502 1499 1497 1494 1492 1489 1486 1483 1480 1477 1474 1471 1467 1464 1460 1457 1453 1450 1447 1445 1442 1440
1505 1496 1494 1494 1488 1488 1491 1493 1501 1507 1510 1502 1503 1503 1503 1503 1503 1504 1504 1503 1502 1500 1498 1495 1493 1490 1487 1484 1482 1479 1475 1472 1469 1465 1462 1458 1454 1450 1447 1443 1441 1438 1435 1433
1516 1504 1500 1505 1491 1488 1490 1489 1495 1504 1503 1499 1502 1501 1500 1500 1500 1501 1500 1500 1498 1496 1494 1491 1488 1486 1483 1480 1477 1474 1470 1467 1464 1460 1456 1452 1448 1443 1440 1437 1434 1431 1429 1426
1516 1514 1518 1505 1483 1481 1487 1489 1488 1491 1494 1495 1496 1497 1497 1497 1497 1497 1496 1495 1494 1492 1490 1487 1484 1481 1478 1475 1472 1469 1465 1462 1458 1454 1450 1445 1441 1437 1434 1431 1428 1425 1422 1420
1518 1519 1513 1495 1483 1481 1488 1494 1489 1490 1492 1493 1494 1495 1496 1494 1493 1493 1492 1491 1490 1488 1486 1483 1480 1477 1474 1471 1467 1464 1460 1457 1453 1449 1444 1439 1435 1431 1428 1425 1422 1419 1416 1413
1513 1516 1519 1499 1480 1477 1485 1497 1488 1486 1487 1489 1491 1497 1493 1489 1489 1488 1488 1487 1486 1484 1482 1479 1476 1473 1469 1466 1462 1459 1455 1451 1447 1443 1438 1433 1429 1425 1422 1419 1416 1413 1410 1408
1509 1512 1502 1483 1476 1477 1496 1494 1481 1480 1481 1482 1483 1485 1484 1483 1484 1484 1484 1483 1482 1480 1477 1475 1472 1469 1465 1462 1458 1454 1450 1446 1442 1437 1433 1428 1424 1421 1418 1415 1411 1408 1405 1402
1506 1510 1502 1475 1474 1479 1479 1471 1473 1474 1475 1476 1476 1477 1478 1478 1479 1479 1479 1479 1477 1475 1473 1470 1467 1464 1461 1457 1453 1449 1445 1441 1436 1432 1428 1424 1420 1416 1413 1410 1406 1403 1399 1396
1493 1491 1474 1468 1468 1467 1466 1467 1467 1468 1469 1470 1471 1471 1472 1473 1474 1474 1474 1474 1473 1471 1469 1466 1463 1460 1456 1453 1449 1444 1440 1436 1432 1427 1423 1420 1416 1412 1409 1405 1402 1398 1394 1391
1480 1473 1466 1464 1463 1463 1462 1461 1461 1462 1463 1464 1464 1465 1466 1467 1468 1469 1469 1469 1468 1466 1464 1462 1459 1456 1452 1448 1444 1440 1436 1432 1427 1423 1419 1416 1412 1409 1405 1401 1397 1394 1390 1386
1477 1468 1463 1461 1460 1459 1458 1457 1457 1457 1457 1458 1458 1459 1460 1461 1462 1463 1463 1463 1462 1461 1459 1457 1454 1451 1448 1444 1440 1436 1432 1427 1423 1419 1416 1412 1408 1405 1401 1398 1394 1390 1386 1382
1474 1464 1462 1458 1456 1455 1454 1453 1452 1452 1452 1453 1453 1453 1454 1455 1456 1458 1458 1458 1457 1456 1454 1453 1450 1447 1444 1440 1436 1432 1427 1423 1419 1416 1412 1409 1405 1400 1397 1394 1390 1386 1382 1379
1460 1458 1456 1453 1452 1451 1449 1448 1447 1447 1447 1447 1447 1448 1449 1450 1451 1452 1453 1453 1452 1451 1450 1448 1445 1443 1440 1436 1432 1428 1424 1420 1416 1413 1409 1406 1402 1398 1393 1389 1386 1383 1379 1376
1455 1453 1450 1449 1447 1446 1445 1444 1444 1444 1443 1443 1443 1443 1444 1445 1446 1447 1448 1449 1448 1447 1445 1444 1441 1439 1436 1432 1428 1424 1420 1416 1413 1410 1406 1402 1399 1395 1391 1387 1382 1379 1376 1373
1450 1449 1448 1446 1444 1443 1442 1441 1441 1440 1439 1439 1438 1439 1439 1440 1441 1443 1444 1445 1445 1443 1441 1439 1437 1435 1432 1428 1424 1420 1417 1413 1410 1406 1403 1400 1396 1392 1388 1384 1381 1377 1373 1370
1447 1446 1445 1444 1443 1442 1441 1440 1439 1438 1436 1435 1434 1434 1434 1435 1437 1439 1440 1440 1439 1438 1436 1435 1433 1431 1427 1424 1420 1417 1413 1410 1407 1403 1400 1396 1393 1389 1385 1382 1378 1374 1371 1368
1447 1448 1447 1447 1446 1445 1444 1442 1440 1438 1436 1434 1432 1431 1431 1432 1433 1434 1434 1434 1433 1432 1431 1429 1428 1426 1423 1420 1417 1413 1409 1406 1403 1400 1397 1394 1390 1386 1383 1379 1375 1372 1369 1366
1454 1454 1453 1452 1451 1448 1446 1444 1442 1439 1437 1435 1433 1432 1431 1430 1429 1429 1429 1428 1427 1427 1425 1424 1422 1421 1419 1416 1413 1410 1406 1403 1400 1397 1394 1391 1387 1384 1380 1377 1373 1370 1366 1364
1457 1456 1455 1454 1454 1452 1449 1446 1445 1443 1440 1438 1435 1433 1431 1428 1427 1425 1424 1423 1422 1421 1420 1419 1418 1417 1415 1412 1409 1406 1403 1400 1397 1394 1391 1388 1385 1382 1378 1375 1371 1368 1365 1361
1460 1459 1457 1455 1454 1452 1450 1447 1445 1442 1440 1437 1435 1432 1429 1426 1423 1421 1419 1417 1416 1415 1415 1414 1413 1412 1410 1408 1406 1403 1400 1397 1394 1391 1388 1385 1382 1379 1376 1373 1370 1367 1363 1360
1462 1460 1458 1456 1453 1451 1448 1445 1442 1439 1435 1433 1430 1427 1424 1421 1418 1415 1413 1411 1410 1410 1409 1409 1408 1408 1406 1404 1402 1399 1396 1394 1391 1388 1386 1383 1380 1377 1375 1372 1369 1366 1363 1359
1464 1461 1458 1455 1452 1448 1445 1442 1439 1435 1431 1428 1424 1421 1417 1413 1410 1408 1406 1405 1405 1404 1404 1403 1403 1403 1402 1400 1398 1396 1393 1391 1388 1386 1383 1380 1378 1375 1373 1370 1367 1365 1362 1358
1463 1459 1456 1452 1449 1445 1441 1438 1435 1431 1427 1422 1418 1414 1410 1407 1404 1401 1399 1399 1398 1398 1398 1398 1398 1398 1397 1396 1394 1392 1390 1388 1385 1383 1380 1378 1375 1373 1371 1369 1366 1364 1361 1358
1458 1455 1452 1448 1444 1440 1437 1433 1430 1426 1423 1419 1415 1410 1406 1401 1397 1395 1393 1392 1392 1392 1393 1393 1393 1393 1393 1392 1391 1389 1387 1385 1382 1379 1377 1375 1373 1371 1369 1367 1365 1363 1360 1358
1454 1450 1447 1443 1440 1436 1433 1430 1426 1422 1419 1415 1411 1407 1403 1399 1395 1391 1389 1388 1387 1388 1388 1389 1390 1390 1390 1389 1387 1386 1384 1382 1379 1376 1374 1372 1370 1368 1367 1366 1364 1362 1360 1358
1449 1446 1443 1440 1437 1434 1431 1427 1423 1419 1415 1411 1407 1404 1400 1395 1392 1388 1386 1385 1384 1384 1384 1385 1386 1387 1386 1386 1384 1383 1381 1379 1376 1373 1371 1369 1367 1366 1365 1364 1363 1361 1360 1358
1445 1442 1439 1436 1433 1430 1427 1424 1420 1417 1413 1409 1405 1401 1397 1393 1389 1386 1384 1382 1381 1381 1382 1382 1382 1383 1384 1383 1382 1380 1378 1376 1373 1371 1368 1366 1365 1363 1363 1362 1361 1360 1359 1358